Location: Brandon River
(52.4833°N, 0.3667°E)
Time: 21:36:23
(UTC+00:00)

Daily predictions for brighter satellites

Satellite Brightness Start Highest point End
(mag) Time Altitude Azimuth Time Altitude Azimuth Time Altitude Azimuth
Ariane Rocket 3.1 21:04:21 10° SSE 21:09:27 86° ENE 21:14:35 10° NNW
Cosmos 1842 3.6 21:07:44 10° SSW 21:11:21 62° WNW 21:15:01 10° N
Cosmos 2251 Rocket 4.2 21:07:09 10° SW 21:12:23 61° WNW 21:17:42 10° NNE
COSMOS 2406 3.4 21:11:32 10° SSW 21:17:19 85° WNW 21:23:06 10° NNE
SPOT 3 Rocket 3.6 21:13:14 10° SSE 21:18:24 88° WSW 21:23:37 10° NNW
CZ-4C R/B 4.4 21:15:45 10° N 21:19:46 52° WNW 21:23:47 10° SW
Meteor 1-13 Rocket 4.3 21:14:25 10° S 21:20:12 77° E 21:25:55 10° NNE
Cosmos 1980 Rocket 4.1 21:16:27 10° NW 21:20:57 25° WSW 21:25:25 10° SSW
SL-27 R/B 4.1 21:20:02 10° ESE 21:20:59 11° E 21:21:57 10° E
Cosmos 2322 Rocket 2.4 21:15:51 10° NNW 21:21:34 73° ENE 21:27:15 10° SE
S3M 4.1 21:15:17 10° N 21:21:43 89° ENE 21:28:04 10° S
ARIANE 5 R/B 4.2 21:18:27 10° ESE 21:21:54 24° ENE 21:25:21 10° N
Genesis I 3.7 21:25:35 10° WSW 21:29:04 58° NW 21:32:37 10° NE
Cosmos 2278 4.2 21:24:47 10° NW 21:30:24 57° WSW 21:35:57 10° S
Cosmos 1655 Rocket 4.3 21:24:18 10° S 21:30:32 58° E 21:36:48 10° NNE
Landsat 5 3.9 21:26:57 10° NNE 21:30:43 41° E 21:34:36 10° S
SJ 16-02 3.0 21:29:01 10° SE 21:31:53 18° E 21:34:46 10° NE
Landsat 4 4.3 21:33:34 10° S 21:36:54 47° W 21:40:16 10° NNW
COSMOS 2428 4.2 21:34:25 10° NNW 21:39:25 30° NE 21:44:25 10° ESE
USA 281 3.6 21:33:09 10° SE 21:39:35 60° NE 21:46:03 10° NNW
Cosmos 1733 Rocket 3.2 21:35:39 10° N 21:40:03 67° ENE 21:44:16 11° SSE
Cosmos 2266 Rocket 4.1 21:33:53 10° S 21:40:13 89° E 21:46:41 10° N
Cosmos 1400 Rocket 2.7 21:36:25 10° S 21:40:19 78° ESE 21:44:11 10° NNE
Cosmos 1954 Rocket 4.4 21:37:10 10° SSW 21:42:27 71° WNW 21:47:44 10° NNE
MetOp-A 4.1 21:37:29 10° SSE 21:42:41 83° ENE 21:47:58 10° NNW
Okean 3 4.3 21:39:26 11° SSE 21:42:58 33° E 21:46:44 10° NNE
Cosmos 1707 4.1 21:40:12 10° SW 21:43:33 35° WNW 21:46:55 10° N
Terra 2.8 21:39:14 10° S 21:43:41 42° W 21:48:10 10° NNW
Cosmos 1814 Rocket 4.4 21:39:46 10° NNW 21:44:59 58° ENE 21:50:00 11° SE
Cosmos 968 Rocket 4.2 21:41:13 10° SSE 21:45:49 34° ESE 21:50:30 10° NE
SL-4 R/B 1.8 21:42:47 10° WSW 21:46:39 75° S 21:50:48 10° E
Cosmos 2228 Rocket 3.2 21:45:09 10° S 21:49:39 66° E 21:54:12 10° NNE
Cosmos 2219 Rocket 2.7 21:44:39 10° NNW 21:50:15 55° NE 21:55:47 10° SE
Cosmos 676 Rocket 4.4 21:46:33 10° SSW 21:51:52 72° WNW 21:57:12 10° NNE
Cosmos 1315 Rocket 4.2 21:51:04 13° SE 21:53:49 25° E 21:57:06 10° NE
ATLAS CENTAUR R/B 2.1 21:52:13 12° S 21:54:48 25° ESE 21:57:48 10° ENE
Meteor 2-10 Rocket 4.0 21:49:23 10° NNW 21:55:02 67° W 22:00:24 10° S
SeaSat 1 4.3 21:53:44 10° SSW 21:57:28 22° WSW 22:01:15 10° NW
Cosmos 1953 3.1 21:54:15 10° N 21:57:52 37° ENE 22:00:51 14° SE
Cosmos 1455 3.1 21:57:52 10° N 22:01:05 33° ENE 22:03:41 14° SE
H-2A R/B 3.8 21:59:30 11° SE 22:03:12 32° ENE 22:07:00 10° N
Cosmos 1242 Rocket 4.2 22:04:20 11° ESE 22:05:19 12° E 22:06:32 10° ENE
USA 234 3.3 21:59:37 10° ENE 22:06:12 88° SSE 22:12:46 10° WSW
Meteor 1-23 Rocket 4.4 22:00:35 10° SSW 22:06:15 79° WNW 22:12:02 10° NNE
BREEZE-M DEB (TANK) 3.4 22:05:56 10° WSW 22:07:45 22° SSW 22:09:09 16° SSE
Okean 1-7 3.7 22:04:58 14° SSE 22:08:14 39° E 22:12:16 10° NNE
CZ-2C R/B 4.3 22:04:09 10° NNE 22:08:19 39° E 22:11:36 15° SSE
Cosmos 2315 Rocket 4.5 22:06:29 10° NNW 22:12:44 61° W 22:18:59 10° S
Cosmos 2360 Rocket 2.4 22:07:41 10° NW 22:13:20 66° WSW 22:18:06 15° SSE
ALOS 2 4.1 22:11:56 10° ESE 22:15:38 28° ENE 22:19:22 10° N
RESURS DK-1 3.5 22:14:23 10° NW 22:18:03 33° WSW 22:21:10 13° S
Cosmos 2333 Rocket 2.4 22:12:40 10° NW 22:18:22 66° WSW 22:23:08 15° SSE
SL-16 R/B 3.4 22:15:47 10° NW 22:20:45 32° WSW 22:25:42 10° SSW
SL-14 R/B 3.8 22:17:57 10° SSW 22:21:41 56° WNW 22:25:26 10° N
Cosmos 1300 3.9 22:20:29 10° NNW 22:23:42 32° W 22:26:54 10° SSW
EXPRESS MD2 2.3 22:24:25 10° WSW 22:26:35 37° S 22:27:54 18° ESE
OPS 8737 4.0 22:23:55 10° NW 22:26:51 73° SW 22:28:45 20° SE
Cosmos 2082 Rocket 4.2 22:23:39 10° WSW 22:28:41 31° NW 22:33:43 10° NNE
BREEZE-M DEB (TANK) 4.0 22:13:55 10° WSW 22:31:20 70° S 22:35:40 10° E
Timation 1 Rocket 4.5 22:26:19 10° SW 22:32:17 80° NW 22:38:18 10° NNE
Cosmos 1346 Rocket 4.0 22:29:49 10° NNW 22:33:21 33° W 22:36:35 11° SSW
Aureole 3 3.6 22:30:50 13° SSW 22:34:16 77° WNW 22:39:04 10° N
DNEPR-1 R/B 4.5 22:28:21 10° NW 22:35:21 76° SW 22:39:56 16° SSE
Cosmos 1703 Rocket 4.0 22:32:44 18° SSE 22:35:51 49° E 22:40:10 10° NNE
Cosmos 1833 4.2 22:30:23 10° SSW 22:35:57 66° ESE 22:41:32 10° NE
Cosmos 1862 Rocket 4.0 22:32:56 10° SSW 22:37:16 61° WNW 22:41:41 10° N
Cosmos 839 Rocket 4.3 22:35:52 10° NW 22:42:54 63° WSW 22:47:43 17° SSE
Meteor 1-4 Rocket 2.1 22:41:49 18° SSW 22:43:54 73° WNW 22:46:54 10° N
Cosmos 2322 3.8 22:39:08 10° NNW 22:44:52 78° ENE 22:49:30 16° SE
Cosmos 2237 Rocket 3.5 22:40:38 10° NNW 22:45:53 36° NE 22:51:04 10° ESE
BlueWalker 3 4.1 22:50:03 11° ESE 22:50:03 11° ESE 22:50:18 10° ESE
ATLAS 2AS CENTAUR R/B 3.2 22:44:01 10° NW 22:50:29 46° WSW 22:55:16 17° S
SL-27 R/B 2.9 22:50:57 10° SW 22:53:34 42° WNW 22:56:16 10° NNE
Orbus 7S? 4.4 22:54:16 10° WNW 22:57:27 36° N 22:59:59 10° ENE
ARIANE 5 R/B 3.1 22:54:58 18° S 22:58:01 51° W 23:02:16 10° NNW
PSLV R/B 3.8 22:55:56 10° NNE 22:59:59 88° ESE 23:02:51 18° SSW
Okean 2 3.6 23:00:22 16° SSW 23:03:31 63° WNW 23:07:31 10° N
Cosmos 2322 Rocket 3.8 23:00:38 10° NW 23:05:04 24° WSW 23:09:15 11° SSW
Cosmos 1570 Rocket 4.1 23:00:11 10° NNW 23:05:34 80° WSW 23:09:22 20° SSE
SJ 16-02 1.6 23:05:36 11° SW 23:09:45 64° WNW 23:14:05 10° NNE
Cosmos 1745 Rocket 4.1 23:05:11 18° S 23:10:03 73° E 23:16:25 10° NNE
Cosmos 1241 Rocket 4.4 23:04:34 10° SSW 23:10:44 72° SE 23:16:59 10° NE
COSMOS 2455 3.9 23:08:59 18° SSE 23:12:12 29° ESE 23:17:18 10° NE
Cosmos 2297 Rocket 3.6 23:13:09 15° SE 23:16:03 22° ESE 23:20:20 10° NE
Nadezhda 1 Rocket 4.1 23:10:42 10° NNW 23:17:02 74° W 23:21:42 19° S
GP-B 3.7 23:14:31 10° N 23:18:48 50° W 23:22:05 16° SSW
Cosmos 1408 2.2 23:22:14 31° SSE 23:23:23 57° E 23:26:21 10° NNE
COSMOS 2428 2.8 23:18:30 10° NW 23:24:12 72° WSW 23:28:13 20° SSE
USA 281 4.1 23:19:37 16° SSW 23:24:21 38° WSW 23:30:27 10° NW
SL-4 R/B 1.9 23:21:23 10° W 23:25:24 71° SSW 23:29:39 10° ESE
Cosmos 968 Rocket 4.5 23:22:33 10° SW 23:27:28 44° NW 23:32:29 10° NNE
Cosmos 1315 Rocket 4.0 23:26:20 11° SW 23:29:48 37° WNW 23:33:33 10° N
Cosmos 1782 Rocket 3.9 23:27:23 10° NNW 23:31:37 53° W 23:34:15 21° SSW
ATLAS CENTAUR R/B 2.0 23:28:50 10° WSW 23:32:15 46° NW 23:35:48 10° NE
Cosmos 1953 4.0 23:30:27 10° NW 23:33:29 22° W 23:35:58 13° SW
Cosmos 2219 Rocket 3.2 23:28:58 10° NW 23:33:58 33° WSW 23:37:28 17° SSW
Cosmos 1455 3.9 23:32:40 10° NW 23:35:21 21° W 23:37:25 13° SW
Cosmos 2208 Rocket 4.2 23:31:08 10° NNW 23:36:17 60° WSW 23:39:34 22° S
Cosmos 1242 Rocket 3.1 23:35:32 19° SW 23:37:03 35° WNW 23:39:39 10° N
H-2A R/B 3.6 23:35:29 19° SSW 23:38:04 35° W 23:42:02 10° NNW
Cosmos 158 Rocket 4.2 23:33:29 10° NNW 23:38:46 62° WSW 23:42:07 22° S
Cosmos 1892 4.4 23:38:13 15° SE 23:39:53 20° E 23:42:31 10° NE
Cosmos 371 Rocket 3.8 23:39:00 22° SSE 23:41:41 45° ESE 23:46:17 10° NE
BREEZE-M DEB (TANK) 3.9 23:38:45 10° W 23:42:13 67° S 23:53:29 10° E
USA 129 3.1 23:42:33 10° N 23:44:00 24° NNW 23:44:00 24° NNW
Cosmos 773 Rocket 3.9 23:41:00 10° NNW 23:46:10 90° SSW 23:49:51 20° SSE
Cosmos 2151 Rocket 4.0 23:42:45 10° N 23:47:06 54° ENE 23:50:04 19° SSE
USA 234 3.8 23:42:39 10° ENE 23:49:06 62° N 23:55:32 10° W
GENESIS II 4.0 23:49:40 24° SSW 23:51:43 66° SE 23:55:20 10° NE
ALOS 2 3.3 23:49:16 21° SSW 23:51:49 43° W 23:56:02 10° NNW
Cosmos 1300 Rocket 4.4 23:49:47 10° NNW 23:53:48 39° W 23:56:18 20° SSW
Okean 2 Rocket 3.5 23:50:02 10° N 23:54:27 58° ENE 23:57:29 19° SSE
Cosmos 2360 Rocket 4.3 23:53:55 10° WNW 23:56:14 13° W 23:58:34 10° WSW
